Olean, NY

10:30 PM EDT on May 20, 2018 (GMT -0400)
Cattaraugus County-Olean

Weather History for KOLE - March, 2013

Change the Weather History Date:

Wednesday, March 13, 2013

  Actual Average (KBFD) Record (KBFD)
Temperature  
Mean Temperature 26 °F -  
Max Temperature 32 °F 38 °F 71 °F (1990)
Min Temperature 19 °F 21 °F -4 °F (1960)
Degree Days  
Heating Degree Days 40    
Moisture  
Dew Point 21 °F    
Average Humidity 80    
Maximum Humidity 100    
Minimum Humidity 59    
Precipitation  
Precipitation 0.00 in - - ()
Sea Level Pressure  
Sea Level Pressure 29.82 in    
Wind  
Wind Speed 6 mph (West)    
Max Wind Speed 16 mph    
Max Gust Speed 28 mph    
Visibility 6 miles    
Events Snow    
Averages and records for this station are not official NWS values.
T = Trace of Precipitation, MM = Missing Value Source: NWS Daily Summary

Daily Weather History Graph

Daily Weather History Graph

Search for Another Location

Airport or City:

Astronomy

Mar. 13, 2013 Rise Set
Actual Time 7:28 AM EDT 7:17 PM EDT
Civil Twilight 7:00 AM EDT 7:45 PM EDT
Nautical Twilight 6:28 AM EDT 8:18 PM EDT
Astronomical Twilight 5:55 AM EDT 8:51 PM EDT
Moon 8:04 AM EDT (3/13) 9:36 PM EDT (3/13)
Length of Visible Light 12h 45m
Length of Day
11h 49m
Waxing Crescent, 4% of the Moon is Illuminated
Mar 13
Waxing Crescent
Mar 19
First Quarter
Mar 27
Full
Apr 3
Last Quarter
Apr 10
New

Hourly Weather History & Observations

Time (EDT) Temp. Windchill Dew Point Humidity Pressure Visibility Wind Dir Wind Speed Gust Speed Precip Events Conditions
12:15 AM 28.4 °F 23.3 °F 28.4 °F 100% 29.85 in 10.0 mi West 4.6 mph - N/A Snow Light Snow
12:35 AM 28.4 °F 22.2 °F 28.4 °F 100% 29.85 in 7.0 mi West 5.8 mph - N/A   Overcast
12:55 AM 28.4 °F 19.1 °F 26.6 °F 93% 29.85 in 7.0 mi West 10.4 mph - N/A Snow Light Snow
1:35 AM 28.4 °F 21.2 °F 26.6 °F 93% 29.85 in 10.0 mi West 6.9 mph - N/A Snow Light Snow
1:55 AM 28.4 °F 21.2 °F 26.6 °F 93% 29.85 in 10.0 mi West 6.9 mph - N/A   Overcast
2:15 AM 28.4 °F 22.2 °F 24.8 °F 86% 29.85 in 10.0 mi WSW 5.8 mph - N/A   Overcast
2:35 AM 28.4 °F 22.2 °F 23.0 °F 80% 29.84 in 10.0 mi WSW 5.8 mph - N/A   Overcast
2:55 AM 28.4 °F 24.6 °F 23.0 °F 80% 29.84 in 10.0 mi West 3.5 mph - N/A   Mostly Cloudy
3:15 AM 28.4 °F 23.3 °F 23.0 °F 80% 29.83 in 10.0 mi WSW 4.6 mph - N/A   Mostly Cloudy
3:35 AM 26.6 °F 21.2 °F 21.2 °F 80% 29.82 in 10.0 mi WSW 4.6 mph - N/A   Scattered Clouds
3:55 AM 26.6 °F 19.1 °F 21.2 °F 80% 29.82 in 10.0 mi WSW 6.9 mph - N/A   Mostly Cloudy
4:15 AM 26.6 °F 19.1 °F 21.2 °F 80% 29.81 in 10.0 mi WSW 6.9 mph - N/A   Mostly Cloudy
4:35 AM 26.6 °F 20.0 °F 21.2 °F 80% 29.81 in 10.0 mi WSW 5.8 mph - N/A   Overcast
4:55 AM 26.6 °F 21.2 °F 21.2 °F 80% 29.80 in 10.0 mi WSW 4.6 mph - N/A   Mostly Cloudy
5:15 AM 26.6 °F - 21.2 °F 80% 29.80 in 10.0 mi Calm Calm - N/A   Clear
5:35 AM 26.6 °F - 21.2 °F 80% 29.79 in 10.0 mi Calm Calm - N/A   Clear
5:55 AM 26.6 °F 22.6 °F 21.2 °F 80% 29.79 in 10.0 mi West 3.5 mph - N/A   Mostly Cloudy
6:15 AM 26.6 °F - 21.2 °F 80% 29.80 in 10.0 mi Calm Calm - N/A   Overcast
6:35 AM 26.6 °F 22.6 °F 21.2 °F 80% 29.79 in 10.0 mi SW 3.5 mph - N/A   Overcast
6:55 AM 26.6 °F 22.6 °F 21.2 °F 80% 29.79 in 10.0 mi WSW 3.5 mph - N/A   Mostly Cloudy
7:15 AM 26.6 °F 21.2 °F 21.2 °F 80% 29.79 in 10.0 mi SW 4.6 mph - N/A   Overcast
7:35 AM 26.6 °F 22.6 °F 21.2 °F 80% 29.79 in 10.0 mi WSW 3.5 mph - N/A   Mostly Cloudy
7:55 AM 26.6 °F - 21.2 °F 80% 29.79 in 10.0 mi Calm Calm - N/A   Overcast
8:15 AM 26.6 °F 22.6 °F 21.2 °F 80% 29.79 in 10.0 mi SW 3.5 mph - N/A   Overcast
8:35 AM 26.6 °F 21.2 °F 23.0 °F 86% 29.79 in 10.0 mi SW 4.6 mph - N/A   Overcast
8:55 AM 28.4 °F 22.2 °F 23.0 °F 80% 29.78 in 7.0 mi SW 5.8 mph - N/A   Overcast
9:15 AM 28.4 °F 21.2 °F 23.0 °F 80% 29.78 in 5.0 mi SW 6.9 mph - N/A Snow Light Snow
9:35 AM 28.4 °F 21.2 °F 24.8 °F 86% 29.78 in 1.8 mi SW 6.9 mph - N/A Snow Light Snow
9:55 AM 28.4 °F 20.4 °F 24.8 °F 86% 29.79 in 2.0 mi SW 8.1 mph - N/A Snow Light Snow
10:15 AM 28.4 °F 23.3 °F 24.8 °F 86% 29.79 in 4.0 mi WSW 4.6 mph - N/A Snow Light Snow
10:35 AM 28.4 °F 22.2 °F 24.8 °F 86% 29.79 in 2.5 mi West 5.8 mph - N/A Snow Light Snow
10:55 AM 30.2 °F 25.4 °F 24.8 °F 80% 29.79 in 4.0 mi WSW 4.6 mph - N/A Snow Light Snow
11:15 AM 30.2 °F 25.4 °F 23.0 °F 75% 29.79 in 10.0 mi West 4.6 mph - N/A   Overcast
11:35 AM 30.2 °F 24.3 °F 23.0 °F 75% 29.79 in 3.0 mi West 5.8 mph - N/A Snow Light Snow
11:55 AM 30.2 °F 19.8 °F 21.2 °F 69% 29.79 in 10.0 mi West 13.8 mph 25.3 mph N/A   Overcast
12:15 PM 32.0 °F 25.6 °F 21.2 °F 64% 29.78 in 10.0 mi SSW 6.9 mph 16.1 mph N/A   Overcast
12:35 PM 28.4 °F 21.2 °F 23.0 °F 80% 29.79 in 0.8 mi WSW 6.9 mph - N/A Snow Light Snow
12:55 PM 30.2 °F 20.8 °F 23.0 °F 75% 29.78 in 3.0 mi WSW 11.5 mph 20.7 mph N/A Snow Light Snow
1:15 PM 28.4 °F 20.4 °F 26.6 °F 93% 29.79 in 0.2 mi West 8.1 mph 18.4 mph N/A Snow Light Snow
1:35 PM 30.2 °F 21.9 °F 24.8 °F 80% 29.78 in 3.0 mi West 9.2 mph - N/A Snow Light Snow
1:55 PM 30.2 °F 21.9 °F 21.2 °F 69% 29.79 in 7.0 mi West 9.2 mph 20.7 mph N/A   Overcast
2:15 PM 30.2 °F 21.3 °F 19.4 °F 64% 29.78 in 10.0 mi West 10.4 mph - N/A   Overcast
2:35 PM 30.2 °F 20.8 °F 19.4 °F 64% 29.78 in 10.0 mi WNW 11.5 mph 19.6 mph N/A   Overcast
2:55 PM 28.4 °F 20.4 °F 19.4 °F 69% 29.78 in 10.0 mi West 8.1 mph 19.6 mph N/A   Overcast
3:15 PM 30.2 °F 23.4 °F 17.6 °F 60% 29.78 in 10.0 mi West 6.9 mph 19.6 mph N/A   Overcast
3:35 PM 28.4 °F 20.4 °F 17.6 °F 64% 29.78 in 7.0 mi West 8.1 mph - N/A Snow Light Snow
3:55 PM 28.4 °F 18.5 °F 17.6 °F 64% 29.78 in 10.0 mi West 11.5 mph 20.7 mph N/A   Overcast
4:15 PM 30.2 °F 20.8 °F 17.6 °F 60% 29.78 in 10.0 mi WNW 11.5 mph 19.6 mph N/A   Overcast
4:35 PM 28.4 °F 21.2 °F 15.8 °F 59% 29.79 in 10.0 mi WSW 6.9 mph 19.6 mph N/A   Overcast
4:55 PM 26.6 °F 19.1 °F 19.4 °F 74% 29.81 in 2.0 mi West 6.9 mph 23.0 mph N/A Snow Light Snow
5:15 PM 26.6 °F 19.1 °F 19.4 °F 74% 29.82 in 1.5 mi West 6.9 mph 24.2 mph N/A Snow Light Snow
5:35 PM 26.6 °F 17.5 °F 15.8 °F 64% 29.82 in 5.0 mi West 9.2 mph 27.6 mph N/A Snow Light Snow
5:55 PM 24.8 °F 11.9 °F 14.0 °F 64% 29.83 in 7.0 mi West 16.1 mph 26.5 mph N/A Snow Light Snow
6:15 PM 23.0 °F 13.1 °F 14.0 °F 68% 29.84 in 7.0 mi West 9.2 mph 18.4 mph N/A   Overcast
6:35 PM 23.0 °F 13.9 °F 14.0 °F 68% 29.84 in 5.0 mi West 8.1 mph 20.7 mph N/A Snow Light Snow
6:55 PM 23.0 °F 12.4 °F 17.6 °F 80% 29.84 in 3.0 mi West 10.4 mph - N/A Snow Light Snow
7:15 PM 21.2 °F 10.9 °F 17.6 °F 86% 29.85 in 1.2 mi West 9.2 mph 17.3 mph N/A Snow Light Snow
7:35 PM 21.2 °F 12.6 °F 15.8 °F 80% 29.85 in 7.0 mi West 6.9 mph 18.4 mph N/A Snow Light Snow
7:55 PM 21.2 °F 14.9 °F 17.6 °F 86% 29.85 in 7.0 mi West 4.6 mph - N/A Snow Light Snow
8:15 PM 21.2 °F 13.6 °F 17.6 °F 86% 29.85 in 1.8 mi West 5.8 mph - N/A Snow Light Snow
8:35 PM 21.2 °F 11.7 °F 17.6 °F 86% 29.86 in 0.8 mi West 8.1 mph - N/A Snow Snow
8:55 PM 21.2 °F 8.9 °F 17.6 °F 86% 29.87 in 1.5 mi West 12.7 mph 21.9 mph N/A Snow Light Snow
9:15 PM 19.4 °F 10.4 °F 15.8 °F 86% 29.87 in 5.0 mi WNW 6.9 mph 23.0 mph N/A Snow Light Snow
9:35 PM 19.4 °F 6.0 °F 15.8 °F 86% 29.87 in 1.8 mi West 13.8 mph 23.0 mph N/A Snow Light Snow
9:55 PM 19.4 °F 7.9 °F 15.8 °F 86% 29.88 in 2.5 mi WNW 10.4 mph 24.2 mph N/A Snow Light Snow
10:15 PM 19.4 °F 9.5 °F 14.0 °F 80% 29.88 in 4.0 mi West 8.1 mph 19.6 mph N/A Snow Light Snow
10:35 PM 19.4 °F 11.5 °F 15.8 °F 86% 29.88 in 1.2 mi West 5.8 mph - N/A Snow Light Snow
10:55 PM 19.4 °F 12.8 °F 17.6 °F 93% 29.88 in 0.8 mi West 4.6 mph - N/A Snow Snow
11:15 PM 19.4 °F 12.8 °F 17.6 °F 93% 29.88 in 0.5 mi West 4.6 mph - N/A Snow Heavy Snow
11:35 PM 19.4 °F 12.8 °F 17.6 °F 93% 29.88 in 0.8 mi West 4.6 mph - N/A Snow Snow
11:55 PM 19.4 °F 9.5 °F 17.6 °F 93% 29.87 in 3.0 mi WNW 8.1 mph 18.4 mph N/A Snow Light Snow